Location: Gull Harbor
(47.1000°N, 122.9000°W)
Time: 14:47:20
(UTC-08:00)

Envisat - Pass Details

Date: 25 October 2019
Orbit: 764 x 766 km, 98.1° (Epoch: 22 November)

Event Time Altitude Azimuth Distance (km) Brightness Sun altitude
Rises 20:45:58 0° 219° (SW) 3,223 6.6 -27.7°
Reaches altitude 10° 20:49:39 10° 247° (WSW) 2,304 6.1 -28.3°
Maximum altitude 20:51:55 13° 273° (W) 2,108 6.1 -28.6°
Drops below altitude 10° 20:54:12 10° 300° (WNW) 2,311 6.3 -29.0°
Sets 20:57:56 0° 328° (NNW) 3,244 6.9 -29.6°
